Hourly Weather Aliwal North

Today, 17 May, Monday

Time Temperature Precipitation Wind Pressure Humidity
00:00 +10°C° 0 mm 3 mps 650 mmHg 62%
01:00 +10°C° 0 mm 3 mps 650 mmHg 64%
02:00 +10°C° 0 mm 3 mps 650 mmHg 62%
03:00 +9°C° 0 mm 2 mps 650 mmHg 67%
04:00 +8°C° 0 mm 2 mps 650 mmHg 72%
05:00 +7°C° 0 mm 2 mps 650 mmHg 77%
06:00 +7°C° 0 mm 2 mps 650 mmHg 75%
07:00 +9°C° 0 mm 1 mps 651 mmHg 73%
08:00 +9°C° 0 mm 1 mps 651 mmHg 71%
09:00 +10°C° 0 mm 2 mps 652 mmHg 63%
10:00 +13°C° 0 mm 2 mps 652 mmHg 55%
11:00 +13°C° 0 mm 3 mps 653 mmHg 47%
12:00 +14°C° 0 mm 3 mps 653 mmHg 43%
13:00 +15°C° 0 mm 4 mps 653 mmHg 39%
14:00 +17°C° 0 mm 4 mps 653 mmHg 34%
15:00 +16°C° 0 mm 3 mps 653 mmHg 36%
16:00 +14°C° 0 mm 3 mps 653 mmHg 37%
17:00 +14°C° 0 mm 3 mps 653 mmHg 38%
18:00 +13°C° 0 mm 2 mps 652 mmHg 43%
19:00 +12°C° 0 mm 1 mps 652 mmHg 47%
20:00 +9°C° 0 mm 0 mps 652 mmHg 52%
21:00 +10°C° 0 mm 1 mps 652 mmHg 52%
22:00 +10°C° 0 mm 1 mps 653 mmHg 52%
23:00 +10°C° 0 mm 1 mps 653 mmHg 53%

Tomorrow, 18 May, Tuesday

Time Temperature Precipitation Wind Pressure Humidity
00:00 +9°C° 0 mm 1 mps 653 mmHg 53%
01:00 +8°C° 0 mm 2 mps 653 mmHg 54%
02:00 +8°C° 0 mm 2 mps 653 mmHg 55%
03:00 +8°C° 0 mm 2 mps 653 mmHg 56%
04:00 +7°C° 0 mm 2 mps 653 mmHg 57%
05:00 +7°C° 0 mm 2 mps 653 mmHg 59%
06:00 +7°C° 0 mm 2 mps 653 mmHg 57%
07:00 +8°C° 0 mm 2 mps 654 mmHg 56%
08:00 +9°C° 0 mm 2 mps 654 mmHg 54%
09:00 +11°C° 0 mm 3 mps 655 mmHg 47%
10:00 +14°C° 0 mm 4 mps 655 mmHg 39%
11:00 +16°C° 0 mm 5 mps 656 mmHg 31%
12:00 +17°C° 0 mm 6 mps 655 mmHg 28%
13:00 +19°C° 0 mm 6 mps 655 mmHg 26%
14:00 +20°C° 0 mm 6 mps 654 mmHg 23%
15:00 +20°C° 0 mm 6 mps 654 mmHg 24%
16:00 +19°C° 0 mm 5 mps 654 mmHg 26%
17:00 +18°C° 0 mm 4 mps 653 mmHg 28%
18:00 +16°C° 0 mm 3 mps 654 mmHg 30%
19:00 +14°C° 0 mm 3 mps 654 mmHg 33%
20:00 +14°C° 0 mm 2 mps 654 mmHg 35%
21:00 +13°C° 0 mm 2 mps 653 mmHg 36%
22:00 +12°C° 0 mm 2 mps 653 mmHg 38%
23:00 +12°C° 0 mm 2 mps 653 mmHg 39%

Day after tomorrow, 19 May, Wednesday

Time Temperature Precipitation Wind Pressure Humidity
00:00 +10°C° 0 mm 2 mps 653 mmHg 40%
01:00 +10°C° 0 mm 2 mps 653 mmHg 40%
02:00 +10°C° 0 mm 2 mps 653 mmHg 41%
03:00 +9°C° 0 mm 2 mps 652 mmHg 41%
04:00 +9°C° 0 mm 2 mps 652 mmHg 42%
05:00 +9°C° 0 mm 2 mps 652 mmHg 42%
06:00 +10°C° 0 mm 2 mps 652 mmHg 41%
07:00 +10°C° 0 mm 2 mps 653 mmHg 40%
08:00 +12°C° 0 mm 2 mps 653 mmHg 39%
09:00 +14°C° 0 mm 3 mps 654 mmHg 34%
10:00 +17°C° 0 mm 5 mps 654 mmHg 29%
11:00 +21°C° 0 mm 6 mps 655 mmHg 24%
12:00 +22°C° 0 mm 7 mps 654 mmHg 22%
13:00 +23°C° 0 mm 9 mps 654 mmHg 21%
14:00 +24°C° 0 mm 10 mps 653 mmHg 19%
15:00 +23°C° 0 mm 8 mps 653 mmHg 22%
16:00 +22°C° 0 mm 7 mps 652 mmHg 25%
17:00 +21°C° 0 mm 5 mps 652 mmHg 28%
18:00 +20°C° 0 mm 5 mps 652 mmHg 31%
19:00 +19°C° 0 mm 4 mps 652 mmHg 34%
20:00 +18°C° 0 mm 4 mps 652 mmHg 36%
21:00 +17°C° 0 mm 4 mps 652 mmHg 37%
22:00 +17°C° 0 mm 4 mps 652 mmHg 38%
23:00 +17°C° 0 mm 4 mps 652 mmHg 39%

20 May, Thursday

Time Temperature Precipitation Wind Pressure Humidity
00:00 +15°C° 0 mm 4 mps 651 mmHg 40%
01:00 +15°C° 0 mm 4 mps 651 mmHg 41%
02:00 +15°C° 0 mm 4 mps 650 mmHg 42%
03:00 +14°C° 0 mm 4 mps 650 mmHg 42%
04:00 +14°C° 0 mm 5 mps 650 mmHg 42%
05:00 +14°C° 0 mm 5 mps 650 mmHg 42%
06:00 +14°C° 0 mm 5 mps 650 mmHg 42%
07:00 +15°C° 0 mm 6 mps 651 mmHg 42%
08:00 +15°C° 0 mm 6 mps 651 mmHg 41%
09:00 +16°C° 0.1 mm 7 mps 651 mmHg 39%
10:00 +18°C° 0.1 mm 9 mps 651 mmHg 37%
11:00 +19°C° 0.1 mm 11 mps 651 mmHg 34%
12:00 +21°C° 0 mm 10 mps 651 mmHg 33%
13:00 +21°C° 0 mm 10 mps 650 mmHg 32%
14:00 +21°C° 0 mm 10 mps 650 mmHg 31%
15:00 +19°C° 0 mm 9 mps 650 mmHg 30%
16:00 +20°C° 0 mm 8 mps 650 mmHg 29%
17:00 +18°C° 0 mm 7 mps 650 mmHg 28%
18:00 +16°C° 0 mm 6 mps 650 mmHg 30%
19:00 +14°C° 0 mm 4 mps 650 mmHg 32%
20:00 +13°C° 0 mm 2 mps 650 mmHg 34%
21:00 +12°C° 0 mm 2 mps 650 mmHg 35%
22:00 +12°C° 0 mm 2 mps 651 mmHg 37%
23:00 +10°C° 0 mm 2 mps 651 mmHg 39%

21 May, Friday

Time Temperature Precipitation Wind Pressure Humidity
00:00 +9°C° 0 mm 2 mps 651 mmHg 48%
01:00 +9°C° 0 mm 2 mps 651 mmHg 57%
02:00 +8°C° 0 mm 2 mps 651 mmHg 66%
03:00 +8°C° 0 mm 2 mps 651 mmHg 72%
04:00 +7°C° 0 mm 2 mps 651 mmHg 78%
05:00 +7°C° 0 mm 3 mps 651 mmHg 84%
06:00 +7°C° 0 mm 3 mps 652 mmHg 83%
07:00 +8°C° 0 mm 3 mps 652 mmHg 81%
08:00 +8°C° 0 mm 3 mps 653 mmHg 79%
09:00 +10°C° 0 mm 4 mps 653 mmHg 67%
10:00 +10°C° 0 mm 6 mps 654 mmHg 56%
11:00 +12°C° 0 mm 7 mps 654 mmHg 44%
12:00 +14°C° 0 mm 7 mps 654 mmHg 39%
13:00 +13°C° 0 mm 8 mps 654 mmHg 34%
14:00 +15°C° 0 mm 8 mps 654 mmHg 29%
15:00 +14°C° 0 mm 7 mps 654 mmHg 28%
16:00 +14°C° 0 mm 6 mps 654 mmHg 28%
17:00 +13°C° 0 mm 5 mps 654 mmHg 27%
18:00 +11°C° 0 mm 4 mps 654 mmHg 32%
19:00 +10°C° 0 mm 3 mps 654 mmHg 37%
20:00 +9°C° 0 mm 2 mps 654 mmHg 41%
21:00 +9°C° 0 mm 1 mps 654 mmHg 44%
22:00 +8°C° 0 mm 1 mps 654 mmHg 48%
23:00 +8°C° 0 mm 1 mps 654 mmHg 51%

22 May, Saturday

Time Temperature Precipitation Wind Pressure Humidity
00:00 +7°C° 0 mm 1 mps 654 mmHg 53%
01:00 +7°C° 0 mm 1 mps 655 mmHg 55%
02:00 +6°C° 0 mm 1 mps 655 mmHg 58%
03:00 +6°C° 0 mm 1 mps 655 mmHg 61%
04:00 +5°C° 0 mm 1 mps 655 mmHg 64%
05:00 +5°C° 0 mm 1 mps 655 mmHg 67%
06:00 +6°C° 0 mm 1 mps 655 mmHg 64%
07:00 +7°C° 0 mm 1 mps 656 mmHg 61%
08:00 +8°C° 0 mm 1 mps 657 mmHg 58%
09:00 +10°C° 0 mm 1 mps 657 mmHg 51%
10:00 +10°C° 0 mm 0 mps 658 mmHg 45%
11:00 +12°C° 0 mm 0 mps 658 mmHg 38%
12:00 +14°C° 0 mm 1 mps 658 mmHg 33%
13:00 +15°C° 0 mm 1 mps 658 mmHg 29%
14:00 +16°C° 0 mm 1 mps 657 mmHg 25%
15:00 +15°C° 0 mm 1 mps 657 mmHg 28%
16:00 +14°C° 0 mm 1 mps 657 mmHg 31%
17:00 +12°C° 0 mm 0 mps 656 mmHg 34%
18:00 +11°C° 0 mm 0 mps 656 mmHg 35%
19:00 +10°C° 0 mm 0 mps 656 mmHg 36%
20:00 +8°C° 0 mm 0 mps 656 mmHg 37%
21:00 +9°C° 0 mm 1 mps 656 mmHg 38%
22:00 +9°C° 0 mm 1 mps 656 mmHg 38%
23:00 +8°C° 0 mm 1 mps 656 mmHg 38%
Show more